Showing default

TOMORROW-S3, 62392

Orbit data source: Space-Track

TOMORROW-S3, 62392 is a payload satellite owned by Tomorrow.io (US) in LEO that was launched on Sat, 21 Dec 2024 UTC via an FALCON 9 launch vehicle from the Air Force Western Test Range (AFWTR). Payload-class satellites include a variety of spacecraft equipped with specific instruments for various scientific and technological missions. These include communications satellites like Starlink; space stations such as the ISS; scientific satellites like the Hubble; Earth observation satellites from companies like Planet Labs, Umbra, and HawkEye 360; GPS; miniature CubeSats for education and research; and military/defense satellites.

Loading next visibility...
Identifier
62392, 2024-247R
Orbit
LEO
Country
Flag of USUS
Related business
Manufacturer
Blue Canyon
Mission
Operational Commercial Weather
Bus & Motor
CUBESAT 6U, Unknown motor
Mass
12 kg wet, 12 kg dry
Launch date (UTC)
2024-12-21 (10 months ago)
Launch vehicle
FALCON 9
Launch site
Air Force Western Test Range (AFWTR)
Object type
Payload
Rocket body
Debris
Shape & HBR
Box + 2 Pan, 1.0 m
Radar Cross Section
0.138 m², Small (<0.1 m²)

Expand to show TLE details & history
Last TLE update: 10 hours ago

TLE from 10 hours ago
0 TOMORROW-S3
1 62392U 24247R   25300.83494264  .00014280  00000-0  57340-3 0  9998
2 62392  44.9946 120.7868 0002892 212.6856 147.3847 15.24920686 47438
Epoch: 2025-10-27T20:02Z
TLE epoch observation values (Epoch: 2025-10-27T20:02:19.044Z)
Latitude
-0.00002°
Longitude
143.77634°
Altitude
492.695 km
Speed
7.619 km/s
True Right ascension
08h 03m 08s
True Declination
0° 00' 00"
Sunlit
Object was in daylight at epoch
Visualization orbit readout
Latitude
Unknown
Longitude
Unknown
Altitude
Unknown
Speed
Unknown
Apparent Right ascension
Unknown
Apparent Declination
Unknown
Sunlit
N/A
Visualization observer readout
Local Sidereal Time
01:33:51
Azimuth
Unknown
Elevation
Unknown
Doppler factor
Unknown
Orbital elements
Apogee altitude
494.619 km
Perigee altitude
490.645 km
Semi-major axis
6,870.769 km
Eccentricity
0.00029
Inclination
44.9946°
RAAN
120.7868°
Arg. of periapsis
212.6856°
True anomaly
147.40256°
Mean anomaly
147.3847°
Eccentric anomaly
147.39363°
Mean motion
3.81097 °/min
Orbital period
94.46 mins
BSTAR
0.0005734
Loading maneuver chart data...
Computing Atmospheric mass density...
Loading historical data...
Loading historical data...
Loading historical data...
Loading historical data...
Loading historical data...
Loading historical data...
Loading historical data...

Documentation

Showing up to 5 results
|